Location: *
(10.5081°N, 66.9194°W)
Time: 04:20:38
(UTC+00:00)

SL-16 R/B - Pass Details

Date: 30 March 2020
Orbit: 841 x 849 km, 71.0° (Epoch: 25 May)

Event Time Altitude Azimuth Distance (km) Brightness Sun altitude
Rises 23:25:32 0° 211° (SSW) 3,392 5.7 -12.4°
Reaches altitude 10° 23:28:06 10° 218° (SW) 2,456 5.0 -13.0°
Maximum altitude 23:33:23 41° 287° (WNW) 1,196 3.6 -14.3°
Drops below altitude 10° 23:38:39 10° 357° (N) 2,451 4.7 -15.6°
Sets 23:41:14 0° 4° (N) 3,384 5.4 -16.2°
